This demonstration page uses our WeatherBlox Daily Observations layout. Learn more.

Left ArrowRight Arrow

31.84235, -102.49876

Hourly Observations for May 19, 2021

Temp ( °F °C ) Dew Point ( °F °C ) Humidity (%) Winds ( mph kmh ) Pressure ( in mb ) Visibility ( mi km ) Precip ( " mm )
12:53 am 00:53 Clear 68 20 57 13.9 68 68 ESE 12 19 29.72 1006 10 16 0.00 0.00
1:53 am 01:53 Clear 66 18.9 59 15 78 78 ESE 12 19 29.70 1006 10 16 0.00 0.00
2:53 am 02:53 Clear 64 17.8 59 15 84 84 SE 12 19 29.70 1006 10 16 0.00 0.00
3:53 am 03:53 Mostly Clear 64 17.8 60 15.6 87 87 ESE 9 15 29.70 1006 9 14 0.00 0.00
4:14 am 04:14 Mostly Cloudy 64 17.8 60 15.6 87 87 ESE 10 17 29.74 1007 9 14 0.00 0.00
4:49 am 04:49 Cloudy 64 18 61 16 88 88 E 10 17 29.75 1008 8 13 0.00 0.00
4:53 am 04:53 Cloudy 65 18.3 61 16.1 87 87 E 10 17 29.72 1006 9 14 0.00 0.00
5:53 am 05:53 Cloudy 66 18.9 61 16.1 84 84 E 12 19 29.74 1007 10 16 0.00 0.00
6:21 am 06:21 Cloudy 65 18.3 60 15.6 84 84 ESE 15 24 29.78 1008 10 16 0.00 0.00
6:28 am 06:28 Cloudy 65 18.3 60 15.6 84 84 ESE 18 30 29.78 1008 9 14 0.00 0.00
6:35 am 06:35 Cloudy 65 18.3 60 15.6 84 84 ESE 18 30 29.77 1008 9 14 0.00 0.00
6:53 am 06:53 Cloudy 64 17.8 60 15.6 87 87 ESE 15 24 29.74 1007 9 14 0.00 0.00
7:53 am 07:53 Cloudy with Mist and Fog 64 17.8 60 15.6 87 87 SSE 13 20 29.77 1008 4 6 0.00 0.00
8:49 am 08:49 Cloudy 64 18 61 16 88 88 ENE 3 6 29.80 1009 8 13 0.00 0.00
8:53 am 08:53 Cloudy 65 18.3 60 15.6 84 84 ENE 3 6 29.78 1009 8 13 0.00 0.00
9:53 am 09:53 Mostly Cloudy 69 20.6 59 15 70 70 NNE 14 22 29.77 1008 10 16 0.00 0.00
10:35 am 10:35 Mostly Cloudy 63 17.2 54 12.2 73 73 ENE 16 26 29.81 1009 10 16 0.00 0.00
10:53 am 10:53 Mostly Cloudy 63 17.2 54 12.2 73 73 ENE 18 30 29.79 1009 10 16 0.00 0.00
11:38 am 11:38 Partly Cloudy 66 18.9 55 12.8 68 68 E 12 19 29.80 1009 10 16 0.00 0.00
11:53 am 11:53 Partly Cloudy 68 20 56 13.3 65 65 E 10 17 29.80 1009 10 16 0.00 0.00
12:53 pm 12:53 Mostly Sunny 73 22.8 57 13.9 57 57 ESE 12 19 29.78 1009 10 16 0.00 0.00
1:53 pm 13:53 Mostly Sunny 75 23.9 56 13.3 52 52 ESE 13 20 29.77 1008 10 16 0.00 0.00
2:53 pm 14:53 Mostly Cloudy 78 25.6 55 12.8 45 45 SE 12 19 29.76 1008 10 16 0.00 0.00
3:53 pm 15:53 Mostly Sunny 77 25 53 11.7 43 43 E 12 19 29.75 1007 10 16 0.00 0.00
4:10 pm 16:10 Partly Cloudy with Nearby Thunderstorms 78 25.6 53 11.7 42 42 ESE 12 19 29.68 1005 10 16 0.00 0.00
4:35 pm 16:35 Sunny 78 25.6 53 11.7 42 42 SE 9 15 29.68 1005 10 16 0.00 0.00
4:53 pm 16:53 Mostly Cloudy with Thunderstorms 78 25.6 53 11.7 42 42 SSW 8 13 29.75 1007 10 16 0.00 0.00
5:32 pm 17:32 Sunny with Nearby Thunderstorms 76 24.4 58 14.4 54 54 SSE 17 28 29.71 1006 10 16 0.00 0.00
5:53 pm 17:53 Mostly Cloudy with Nearby Thunderstorms 76 24.4 58 14.4 54 54 SSE 14 22 29.75 1007 10 16 0.00 0.00
6:00 pm 18:00 Mostly Cloudy with Thunderstorms 75 23.9 56 13.3 52 52 SSE 13 20 29.70 1006 10 16 0.00 0.00
6:14 pm 18:14 Windy with Storms Likely 71 21.7 57 13.9 61 61 E 24 39 29.73 1007 10 16 0.00 0.00
6:53 pm 18:53 Cloudy with Thunderstorms 70 21.1 60 15.6 71 71 ESE 9 15 29.76 1008 10 16 0.04 1.02
7:03 pm 19:03 Mostly Cloudy 72 22.2 60 15.6 66 66 ESE 13 20 29.72 1006 10 16 0.00 0.00
7:53 pm 19:53 Sunny 73 22.8 60 15.6 64 64 ESE 13 20 29.74 1007 10 16 0.00 0.00
8:53 pm 20:53 Clear 70 21.1 59 15 68 68 SE 15 24 29.75 1008 10 16 0.00 0.00
9:13 pm 21:13 Mostly Clear 69 20.6 61 16.1 76 76 SSE 14 22 29.74 1007 10 16 0.00 0.00
9:53 pm 21:53 Clear 67 19.4 60 15.6 79 79 SE 13 20 29.76 1008 10 16 0.00 0.00
10:53 pm 22:53 Clear 65 18.3 55 12.8 70 70 SSE 7 11 29.80 1009 10 16 0.00 0.00
11:53 pm 23:53 Clear 64 17.8 54 12.2 70 70 SSE 10 17 29.80 1009 10 16 0.00 0.00

Powered by AerisWeather